Location: Casteau
(50.5142°N, 4.0161°E)
Time: 02:20:53
(UTC+00:00)

S-56A Canister/Altair - Pass Details

Date: 06 August 2021
Orbit: 632 x 2500 km, 38.9° (Epoch: 16 September)

Event Time Altitude Azimuth Distance (km) Brightness Sun altitude
Rises 14:23:54 0° 244° (WSW) 5,225 12.5 44.1°
Reaches altitude 10° 14:27:07 10° 240° (WSW) 4,445 12.5 43.7°
Maximum altitude 14:39:17 50° 170° (S) 2,865 11.2 42.1°
Drops below altitude 10° 14:53:30 10° 102° (ESE) 5,138 11.5 40.1°
Sets 14:57:32 0° 98° (E) 6,073 11.7 39.5°
